Weather History for KCOQ - January, 2013

Change the Weather History Date:

Friday, January 4, 2013

  Actual Average Record
Temperature  
Mean Temperature 20 °F -  
Max Temperature 33 °F 18 °F 37 °F (2001)
Min Temperature 8 °F 4 °F -14 °F (2015)
Degree Days  
Heating Degree Days 44    
Moisture  
Dew Point 12 °F    
Average Humidity 68    
Maximum Humidity 92    
Minimum Humidity 30    
Precipitation  
Precipitation 0.00 in - - ()
Sea Level Pressure  
Sea Level Pressure 29.96 in    
Wind  
Wind Speed 8 mph (West)    
Max Wind Speed 14 mph    
Max Gust Speed 24 mph    
Visibility 10 miles    
Events      
Averages and records for this station are not official NWS values.
T = Trace of Precipitation, MM = Missing Value Source: NWS Daily Summary

Daily Weather History Graph

Daily Weather History Graph

Search for Another Location

Airport or City:

Trip Planner

Search our weather history database for the weather conditions in past years. The results will help you decide how hot, cold, wet, or windy it might be!

Date:

Astronomy

Jan. 04, 2013 Rise Set
Actual Time 7:54 AM CST 4:36 PM CST
Civil Twilight 7:19 AM CST 5:10 PM CST
Nautical Twilight 6:41 AM CST 5:49 PM CST
Astronomical Twilight 6:04 AM CST 6:25 PM CST
Moon No Moon Rise 11:08 AM CST (1/4)
Length of Visible Light 9h 51m
Length of Day
8h 41m
Waning Gibbous, 55% of the Moon is Illuminated
Jan 4
Waning Gibbous
Jan 4
Last Quarter
Jan 11
New
Jan 18
First Quarter
Jan 26
Full

Hourly Weather History & Observations

Time (CST) Temp. Windchill Dew Point Humidity Pressure Visibility Wind Dir Wind Speed Gust Speed Precip Events Conditions
12:16 AM 15.8 °F 3.4 °F 8.6 °F 73% 29.88 in 10.0 mi West 10.4 mph - N/A   Clear
12:36 AM 15.8 °F 3.4 °F 8.6 °F 73% 29.87 in 10.0 mi WSW 10.4 mph - N/A   Clear
12:56 AM 15.8 °F 5.1 °F 8.6 °F 73% 29.87 in 10.0 mi WSW 8.1 mph - N/A   Clear
1:16 AM 15.8 °F 4.2 °F 8.6 °F 73% 29.86 in 10.0 mi WSW 9.2 mph - N/A   Clear
1:36 AM 15.8 °F 4.2 °F 8.6 °F 73% 29.86 in 10.0 mi WSW 9.2 mph - N/A   Clear
1:56 AM 15.8 °F 5.1 °F 8.6 °F 73% 29.87 in 10.0 mi WSW 8.1 mph - N/A   Clear
2:15 AM 15.8 °F 6.1 °F 8.6 °F 73% 29.87 in 10.0 mi WSW 6.9 mph - N/A   Clear
2:36 AM 15.8 °F 6.1 °F 8.6 °F 73% 29.87 in 10.0 mi WSW 6.9 mph - N/A   Clear
2:56 AM 15.8 °F 6.1 °F 8.6 °F 73% 29.87 in 10.0 mi WSW 6.9 mph - N/A   Clear
3:15 AM 14.0 °F 5.1 °F 8.6 °F 79% 29.87 in 10.0 mi SW 5.8 mph - N/A   Clear
3:36 AM 10.4 °F 0.8 °F 6.8 °F 85% 29.87 in 10.0 mi SW 5.8 mph - N/A   Clear
3:56 AM 10.4 °F 2.2 °F 6.8 °F 85% 29.87 in 10.0 mi SSW 4.6 mph - N/A   Clear
4:16 AM 8.6 °F -1.3 °F 5.0 °F 85% 29.87 in 10.0 mi SSW 5.8 mph - N/A   Clear
4:56 AM 8.6 °F 0.1 °F 3.2 °F 79% 29.87 in 10.0 mi SSW 4.6 mph - N/A   Clear
5:16 AM 32.0 °F - 3.2 °F 30% 29.87 in 10.0 mi Calm Calm - N/A   Clear
5:36 AM 8.6 °F 2.0 °F 5.0 °F 85% 29.88 in 10.0 mi SW 3.5 mph - N/A   Clear
5:56 AM 8.6 °F - 3.2 °F 79% 29.89 in 10.0 mi Calm Calm - N/A   Clear
6:16 AM 8.6 °F 0.1 °F 6.8 °F 92% 29.89 in 10.0 mi West 4.6 mph - N/A   Clear
6:36 AM 12.2 °F 0.7 °F 8.6 °F 85% 29.89 in 10.0 mi West 8.1 mph - N/A   Clear
6:55 AM 14.0 °F 3.9 °F 8.6 °F 79% 29.90 in 10.0 mi West 6.9 mph - N/A   Clear
7:16 AM 14.0 °F 2.0 °F 8.6 °F 79% 29.90 in 10.0 mi West 9.2 mph - N/A   Clear
7:36 AM 15.8 °F 5.1 °F 8.6 °F 73% 29.90 in 10.0 mi West 8.1 mph - N/A   Clear
7:55 AM 15.8 °F 4.2 °F 8.6 °F 73% 29.90 in 10.0 mi West 9.2 mph - N/A   Clear
8:15 AM 15.8 °F 5.1 °F 8.6 °F 73% 29.91 in 10.0 mi West 8.1 mph - N/A   Clear
8:36 AM 15.8 °F 4.2 °F 10.4 °F 79% 29.92 in 10.0 mi West 9.2 mph - N/A   Clear
8:56 AM 17.6 °F 5.7 °F 10.4 °F 73% 29.92 in 10.0 mi West 10.4 mph - N/A   Clear
9:16 AM 17.6 °F 3.7 °F 10.4 °F 73% 29.93 in 10.0 mi West 13.8 mph 18.4 mph N/A   Clear
9:36 AM 19.4 °F 7.2 °F 10.4 °F 68% 29.93 in 10.0 mi West 11.5 mph - N/A   Clear
9:56 AM 21.2 °F 10.9 °F 12.2 °F 68% 29.94 in 10.0 mi West 9.2 mph 17.3 mph N/A   Clear
10:16 AM 21.2 °F 9.5 °F 12.2 °F 68% 29.95 in 10.0 mi West 11.5 mph 17.3 mph N/A   Clear
10:36 AM 23.0 °F 13.9 °F 12.2 °F 63% 29.95 in 10.0 mi West 8.1 mph - N/A   Clear
10:56 AM 24.8 °F 16.9 °F 14.0 °F 64% 29.94 in 10.0 mi West 6.9 mph - N/A   Clear
11:16 AM 26.6 °F 17.5 °F 14.0 °F 59% 29.95 in 10.0 mi West 9.2 mph - N/A   Clear
11:36 AM 28.4 °F 17.5 °F 15.8 °F 59% 29.95 in 10.0 mi WNW 13.8 mph - N/A   Clear
11:56 AM 28.4 °F 18.5 °F 15.8 °F 59% 29.95 in 10.0 mi WNW 11.5 mph 17.3 mph N/A   Clear
12:16 PM 28.4 °F 18.5 °F 15.8 °F 59% 29.95 in 10.0 mi WNW 11.5 mph - N/A   Clear
12:36 PM 30.2 °F 20.8 °F 15.8 °F 55% 29.95 in 10.0 mi West 11.5 mph 16.1 mph N/A   Clear
12:55 PM 30.2 °F 20.2 °F 15.8 °F 55% 29.95 in 10.0 mi WNW 12.7 mph - N/A   Clear
1:16 PM 32.0 °F 22.5 °F 15.8 °F 51% 29.95 in 10.0 mi WNW 12.7 mph 24.2 mph N/A   Clear
1:36 PM 33.8 °F 24.8 °F 15.8 °F 48% 29.95 in 10.0 mi West 12.7 mph - N/A   Clear
1:55 PM 33.8 °F 25.3 °F 15.8 °F 48% 29.95 in 10.0 mi WNW 11.5 mph 18.4 mph N/A   Clear
2:16 PM 33.8 °F 24.3 °F 15.8 °F 48% 29.95 in 10.0 mi WNW 13.8 mph 18.4 mph N/A   Clear
2:36 PM 33.8 °F 24.8 °F 15.8 °F 48% 29.96 in 10.0 mi West 12.7 mph 17.3 mph N/A   Clear
2:55 PM 33.8 °F 24.3 °F 15.8 °F 48% 29.97 in 10.0 mi West 13.8 mph - N/A   Clear
3:16 PM 33.8 °F 25.8 °F 15.8 °F 48% 29.98 in 10.0 mi WNW 10.4 mph - N/A   Clear
3:36 PM 33.8 °F 26.4 °F 15.8 °F 48% 29.99 in 10.0 mi WNW 9.2 mph - N/A   Clear
3:55 PM 33.8 °F 27.0 °F 15.8 °F 48% 30.00 in 10.0 mi West 8.1 mph - N/A   Clear
4:16 PM 32.0 °F 25.6 °F 15.8 °F 51% 30.01 in 10.0 mi West 6.9 mph - N/A   Clear
4:35 PM 30.2 °F 26.7 °F 15.8 °F 55% 30.02 in 10.0 mi West 3.5 mph - N/A   Clear
4:56 PM 28.4 °F 22.2 °F 15.8 °F 59% 30.02 in 10.0 mi West 5.8 mph - N/A   Clear
5:16 PM 28.4 °F 21.2 °F 15.8 °F 59% 30.03 in 10.0 mi West 6.9 mph - N/A   Clear
5:35 PM 28.4 °F 23.3 °F 15.8 °F 59% 30.03 in 10.0 mi West 4.6 mph - N/A   Clear
5:56 PM 28.4 °F 23.3 °F 15.8 °F 59% 30.03 in 10.0 mi West 4.6 mph - N/A   Clear
6:16 PM 28.4 °F 23.3 °F 15.8 °F 59% 30.04 in 10.0 mi West 4.6 mph - N/A   Clear
6:35 PM 26.6 °F 22.6 °F 15.8 °F 64% 30.05 in 10.0 mi WSW 3.5 mph - N/A   Clear
6:56 PM 26.6 °F 22.6 °F 15.8 °F 64% 30.05 in 10.0 mi West 3.5 mph - N/A   Clear
7:16 PM 26.6 °F 22.6 °F 15.8 °F 64% 30.06 in 10.0 mi West 3.5 mph - N/A   Clear
7:36 PM 26.6 °F 22.6 °F 15.8 °F 64% 30.06 in 10.0 mi WNW 3.5 mph - N/A   Clear
7:55 PM 24.8 °F - 15.8 °F 69% 30.06 in 10.0 mi Calm Calm - N/A   Clear
8:16 PM 24.8 °F - 15.8 °F 69% 30.05 in 10.0 mi Calm Calm - N/A   Clear
8:36 PM 23.0 °F 18.4 °F 15.8 °F 74% 30.05 in 10.0 mi NNW 3.5 mph - N/A   Clear
8:55 PM 23.0 °F 18.4 °F 15.8 °F 74% 30.04 in 10.0 mi North 3.5 mph - N/A   Clear
9:16 PM 21.2 °F - 15.8 °F 80% 30.05 in 10.0 mi Calm Calm - N/A   Clear
9:36 PM 21.2 °F - 15.8 °F 80% 30.05 in 10.0 mi Calm Calm - N/A   Clear
9:55 PM 19.4 °F - 15.8 °F 86% 30.06 in 10.0 mi Calm Calm - N/A   Clear
10:16 PM 17.6 °F - 12.2 °F 79% 30.06 in 10.0 mi Calm Calm - N/A   Clear
10:36 PM 15.8 °F - 12.2 °F 86% 30.07 in 10.0 mi Calm Calm - N/A   Clear
10:56 PM 17.6 °F - 14.0 °F 86% 30.07 in 10.0 mi Calm Calm - N/A   Clear
11:16 PM 15.8 °F - 12.2 °F 86% 30.06 in 10.0 mi Calm Calm - N/A   Clear
11:36 PM 15.8 °F - 12.2 °F 86% 30.06 in 10.0 mi Calm Calm - N/A   Clear
11:56 PM 15.8 °F - 12.2 °F 86% 30.05 in 10.0 mi Calm Calm - N/A   Clear